status,avgMeasuredTime,avgSpeed,extID,medianMeasuredTime,TIMESTAMP,vehicleCount,_id,REPORT_ID
OK,248,21,1051,248,2014-08-01T08:00:00,3,20747106,190100
OK,248,21,1051,248,2014-08-01T08:10:00,0,20747928,190100
OK,248,21,1051,248,2014-08-01T08:15:00,0,20748377,190100
OK,248,21,1051,248,2014-08-01T08:20:00,0,20748826,190100
OK,248,21,1051,248,2014-08-01T08:25:00,0,20749275,190100
OK,376,14,1051,376,2014-08-01T08:30:00,4,20749724,190100
OK,225,23,1051,225,2014-08-01T08:40:00,3,20750622,190100
OK,285,18,1051,285,2014-08-01T08:50:00,2,20751520,190100
OK,490,10,1051,490,2014-08-01T09:00:00,2,20752418,190100
OK,466,11,1051,466,2014-08-01T09:05:00,3,20752867,190100
OK,445,12,1051,445,2014-08-01T09:10:00,2,20753316,190100
OK,458,11,1051,458,2014-08-01T09:20:00,2,20754214,190100
OK,515,10,1051,515,2014-08-01T09:25:00,1,20754663,190100
OK,621,8,1051,621,2014-08-01T09:30:00,3,20755112,190100
OK,545,9,1051,545,2014-08-01T09:35:00,5,20755561,190100
OK,538,9,1051,538,2014-08-01T09:40:00,2,20756010,190100
OK,532,10,1051,532,2014-08-01T09:45:00,0,20756459,190100
OK,558,9,1051,558,2014-08-01T09:50:00,5,20756908,190100
OK,549,9,1051,549,2014-08-01T09:55:00,8,20757357,190100
OK,506,10,1051,506,2014-08-01T10:00:00,5,20757806,190100
OK,637,8,1051,637,2014-08-01T10:20:00,3,20759602,190100
OK,559,9,1051,559,2014-08-01T10:30:00,1,20760500,190100
OK,705,7,1051,705,2014-08-01T10:40:00,5,20761398,190100
OK,525,10,1051,525,2014-08-01T11:00:00,3,20763194,190100
OK,543,9,1051,543,2014-08-01T11:20:00,4,20764989,190100
OK,452,11,1051,452,2014-08-01T11:30:00,4,20765887,190100
OK,543,9,1051,543,2014-08-01T11:40:00,2,20766785,190100
OK,564,9,1051,564,2014-08-01T11:45:00,0,20767234,190100
OK,612,8,1051,612,2014-08-01T11:50:00,5,20767683,190100
OK,577,9,1051,577,2014-08-01T12:00:00,4,20768581,190100
OK,695,7,1051,695,2014-08-01T12:10:00,4,20769479,190100
OK,640,8,1051,640,2014-08-01T12:20:00,2,20770377,190100
OK,611,8,1051,611,2014-08-01T12:30:00,4,20771275,190100
OK,611,8,1051,611,2014-08-01T12:40:00,1,20772173,190100
OK,714,7,1051,714,2014-08-01T12:50:00,5,20773071,190100
OK,667,8,1051,667,2014-08-01T12:55:00,5,20773520,190100
OK,661,8,1051,661,2014-08-01T13:00:00,6,20773969,190100
OK,687,7,1051,687,2014-08-01T13:10:00,1,20774867,190100
OK,668,8,1051,668,2014-08-01T13:20:00,2,20775765,190100
OK,676,7,1051,676,2014-08-01T13:30:00,6,20776663,190100
OK,575,9,1051,575,2014-08-01T13:35:00,2,20777112,190100
OK,692,7,1051,692,2014-08-01T13:40:00,3,20777561,190100
OK,733,7,1051,733,2014-08-01T13:45:00,3,20778010,190100
OK,776,6,1051,776,2014-08-01T13:50:00,3,20778459,190100
OK,723,7,1051,723,2014-08-01T14:00:00,6,20779357,190100
OK,653,8,1051,653,2014-08-01T14:05:00,7,20779806,190100
OK,639,8,1051,639,2014-08-01T14:10:00,5,20780255,190100
OK,635,8,1051,635,2014-08-01T14:15:00,4,20780704,190100
OK,599,8,1051,599,2014-08-01T14:20:00,2,20781153,190100
OK,738,7,1051,738,2014-08-01T14:25:00,3,20781602,190100
OK,719,7,1051,719,2014-08-01T14:30:00,4,20782051,190100
OK,734,7,1051,734,2014-08-01T14:35:00,2,20782500,190100
OK,501,10,1051,501,2014-08-01T14:40:00,2,20782949,190100
OK,532,10,1051,532,2014-08-01T14:45:00,6,20783398,190100
OK,534,10,1051,534,2014-08-01T14:50:00,7,20783847,190100
OK,471,11,1051,471,2014-08-01T15:00:00,2,20784745,190100
OK,415,12,1051,415,2014-08-01T15:05:00,3,20785194,190100
OK,412,13,1051,412,2014-08-01T15:10:00,5,20785643,190100
OK,472,11,1051,472,2014-08-01T15:15:00,4,20786092,190100
OK,587,9,1051,587,2014-08-01T15:20:00,2,20786541,190100
OK,551,9,1051,551,2014-08-01T15:25:00,2,20786990,190100
OK,545,9,1051,545,2014-08-01T15:30:00,3,20787439,190100
OK,545,9,1051,545,2014-08-01T15:35:00,1,20787888,190100
OK,546,9,1051,546,2014-08-01T15:40:00,3,20788337,190100
OK,560,9,1051,560,2014-08-01T15:45:00,5,20788786,190100
OK,622,8,1051,622,2014-08-01T15:50:00,3,20789235,190100
OK,478,11,1051,478,2014-08-01T15:55:00,2,20789684,190100
OK,441,12,1051,441,2014-08-01T16:00:00,1,20790133,190100
OK,441,12,1051,441,2014-08-01T16:05:00,0,20790582,190100
OK,568,9,1051,568,2014-08-01T16:10:00,2,20791031,190100
OK,567,9,1051,567,2014-08-01T16:15:00,3,20791480,190100
OK,522,10,1051,522,2014-08-01T16:20:00,1,20791929,190100
OK,564,9,1051,564,2014-08-01T16:25:00,1,20792378,190100
OK,564,9,1051,564,2014-08-01T16:30:00,1,20792827,190100
OK,484,11,1051,484,2014-08-01T16:35:00,2,20793276,190100
OK,455,11,1051,455,2014-08-01T16:40:00,3,20793725,190100
OK,269,19,1051,269,2014-08-01T16:45:00,3,20794174,190100
OK,221,24,1051,221,2014-08-01T16:50:00,4,20794623,190100
OK,321,16,1051,321,2014-08-01T16:55:00,5,20795072,190100
OK,309,17,1051,309,2014-08-01T17:00:00,7,20795521,190100
OK,220,24,1051,220,2014-08-01T17:05:00,3,20795970,190100
OK,273,19,1051,273,2014-08-01T17:10:00,3,20796419,190100
OK,262,20,1051,262,2014-08-01T17:15:00,4,20796868,190100
OK,251,21,1051,251,2014-08-01T17:20:00,3,20797317,190100
OK,264,20,1051,264,2014-08-01T17:25:00,2,20797766,190100
OK,234,22,1051,234,2014-08-01T17:30:00,1,20798215,190100
OK,234,22,1051,234,2014-08-01T17:35:00,1,20798664,190100
OK,198,27,1051,198,2014-08-01T17:40:00,2,20799113,190100
OK,224,23,1051,224,2014-08-01T17:45:00,4,20799562,190100
OK,243,22,1051,243,2014-08-01T17:50:00,2,20800011,190100
OK,306,17,1051,306,2014-08-01T17:55:00,3,20800460,190100
OK,303,17,1051,303,2014-08-01T18:00:00,5,20800909,190100
OK,237,22,1051,237,2014-08-01T18:05:00,3,20801358,190100
OK,247,21,1051,247,2014-08-01T18:10:00,4,20801807,190100
OK,241,22,1051,241,2014-08-01T18:15:00,3,20802256,190100
OK,282,19,1051,282,2014-08-01T18:20:00,0,20802705,190100
OK,221,24,1051,221,2014-08-01T18:25:00,4,20803154,190100
OK,221,24,1051,221,2014-08-01T18:30:00,6,20803603,190100
OK,212,25,1051,212,2014-08-01T18:35:00,2,20804052,190100
OK,178,30,1051,178,2014-08-01T18:40:00,0,20804501,190100
OK,292,18,1051,292,2014-08-01T18:45:00,1,20804950,190100
OK,256,20,1051,256,2014-08-01T18:50:00,2,20805399,190100
OK,221,24,1051,221,2014-08-01T18:55:00,1,20805848,190100
OK,221,24,1051,221,2014-08-01T19:00:00,0,20806297,190100
OK,221,24,1051,221,2014-08-01T19:05:00,0,20806746,190100
OK,221,24,1051,221,2014-08-01T19:10:00,0,20807195,190100
OK,221,24,1051,221,2014-08-01T19:15:00,0,20807644,190100
OK,185,28,1051,185,2014-08-01T19:20:00,2,20808093,190100
OK,185,28,1051,185,2014-08-01T19:25:00,2,20808542,190100
OK,166,32,1051,166,2014-08-01T19:30:00,1,20808991,190100
OK,166,32,1051,166,2014-08-01T19:35:00,1,20809440,190100
OK,193,27,1051,193,2014-08-01T19:40:00,1,20809889,190100
OK,191,28,1051,191,2014-08-01T19:45:00,1,20810338,190100
OK,276,19,1051,276,2014-08-01T19:50:00,1,20810787,190100
OK,236,22,1051,236,2014-08-01T19:55:00,2,20811236,190100
OK,196,27,1051,196,2014-08-01T22:00:00,0,20816965,190100
OK,131,40,1051,131,2014-08-02T00:00:00,0,20823404,190100
OK,131,40,1051,131,2014-08-02T00:05:00,0,20823853,190100
OK,131,40,1051,131,2014-08-02T00:10:00,0,20824302,190100
OK,131,40,1051,131,2014-08-02T00:15:00,0,20824751,190100
OK,131,40,1051,131,2014-08-02T00:20:00,0,20825200,190100
OK,131,40,1051,131,2014-08-02T00:25:00,0,20825649,190100
OK,131,40,1051,131,2014-08-02T00:30:00,0,20826098,190100
OK,153,35,1051,153,2014-08-02T00:35:00,1,20826547,190100
OK,153,35,1051,153,2014-08-02T00:40:00,0,20826996,190100
OK,153,35,1051,153,2014-08-02T00:45:00,0,20827445,190100
OK,153,35,1051,153,2014-08-02T00:50:00,0,20827894,190100
OK,153,35,1051,153,2014-08-02T00:55:00,0,20828343,190100
OK,153,35,1051,153,2014-08-02T01:00:00,0,20828792,190100
OK,153,35,1051,153,2014-08-02T01:05:00,0,20829241,190100
OK,153,35,1051,153,2014-08-02T01:10:00,0,20829690,190100
OK,153,35,1051,153,2014-08-02T01:15:00,0,20830139,190100
OK,153,35,1051,153,2014-08-02T01:20:00,0,20830588,190100
OK,153,35,1051,153,2014-08-02T01:25:00,0,20831037,190100
OK,153,35,1051,153,2014-08-02T01:30:00,0,20831486,190100
OK,153,35,1051,153,2014-08-02T01:35:00,0,20831935,190100
OK,153,35,1051,153,2014-08-02T01:40:00,0,20832384,190100
OK,153,35,1051,153,2014-08-02T01:45:00,0,20832833,190100
OK,153,35,1051,153,2014-08-02T01:50:00,0,20833282,190100
OK,153,35,1051,153,2014-08-02T01:55:00,0,20833731,190100
OK,153,35,1051,153,2014-08-02T02:00:00,0,20834180,190100
OK,153,35,1051,153,2014-08-02T02:05:00,0,20834629,190100
OK,153,35,1051,153,2014-08-02T02:10:00,0,20835078,190100
OK,153,35,1051,153,2014-08-02T02:15:00,0,20835527,190100
OK,153,35,1051,153,2014-08-02T02:20:00,0,20835976,190100
OK,153,35,1051,153,2014-08-02T02:25:00,0,20836425,190100
OK,153,35,1051,153,2014-08-02T02:30:00,0,20836874,190100
OK,153,35,1051,153,2014-08-02T02:35:00,0,20837323,190100
OK,153,35,1051,153,2014-08-02T02:40:00,0,20837772,190100
OK,153,35,1051,153,2014-08-02T02:45:00,0,20838221,190100
OK,153,35,1051,153,2014-08-02T02:50:00,0,20838670,190100
OK,153,35,1051,153,2014-08-02T02:55:00,0,20839119,190100
OK,153,35,1051,153,2014-08-02T03:00:00,0,20839568,190100
OK,153,35,1051,153,2014-08-02T03:05:00,0,20840017,190100
OK,153,35,1051,153,2014-08-02T03:10:00,0,20840466,190100
OK,153,35,1051,153,2014-08-02T03:15:00,0,20840915,190100
OK,153,35,1051,153,2014-08-02T03:20:00,0,20841364,190100
OK,153,35,1051,153,2014-08-02T03:25:00,0,20841813,190100
OK,153,35,1051,153,2014-08-02T03:30:00,0,20842262,190100
OK,172,31,1051,172,2014-08-02T03:35:00,1,20842711,190100
OK,172,31,1051,172,2014-08-02T03:40:00,0,20843160,190100
OK,172,31,1051,172,2014-08-02T03:45:00,0,20843609,190100
OK,172,31,1051,172,2014-08-02T03:50:00,0,20844058,190100
OK,172,31,1051,172,2014-08-02T03:55:00,0,20844507,190100
OK,172,31,1051,172,2014-08-02T06:00:00,0,20851961,190100
OK,172,31,1051,172,2014-08-02T06:05:00,0,20852410,190100
OK,178,30,1051,178,2014-08-02T06:10:00,2,20852859,190100
OK,178,30,1051,178,2014-08-02T06:15:00,2,20853308,190100
OK,178,30,1051,178,2014-08-02T06:20:00,0,20853757,190100
OK,178,30,1051,178,2014-08-02T06:25:00,0,20854206,190100
OK,148,36,1051,148,2014-08-02T06:30:00,1,20854655,190100
OK,148,36,1051,148,2014-08-02T06:35:00,1,20855104,190100
OK,148,36,1051,148,2014-08-02T06:40:00,0,20855553,190100
OK,153,35,1051,153,2014-08-02T06:45:00,2,20856002,190100
OK,151,35,1051,151,2014-08-02T06:50:00,5,20856451,190100
OK,202,26,1051,202,2014-08-02T06:55:00,3,20856900,190100
OK,202,26,1051,202,2014-08-02T07:00:00,0,20857349,190100
OK,145,36,1051,145,2014-08-02T07:05:00,0,20857798,190100
OK,145,36,1051,145,2014-08-02T07:10:00,0,20858247,190100
OK,174,30,1051,174,2014-08-02T07:15:00,2,20858696,190100
OK,176,30,1051,176,2014-08-02T07:20:00,3,20859145,190100
OK,197,27,1051,197,2014-08-02T07:25:00,3,20859594,190100
OK,217,24,1051,217,2014-08-02T07:30:00,4,20860043,190100
OK,230,23,1051,230,2014-08-02T07:35:00,4,20860492,190100
OK,181,29,1051,181,2014-08-02T07:40:00,1,20860941,190100
OK,189,28,1051,189,2014-08-02T07:45:00,4,20861390,190100
OK,190,28,1051,190,2014-08-02T07:50:00,3,20861839,190100
OK,198,27,1051,198,2014-08-02T07:55:00,1,20862288,190100
OK,291,18,1051,291,2014-08-02T08:00:00,6,20862737,190100
OK,231,23,1051,231,2014-08-02T08:05:00,9,20863186,190100
OK,225,23,1051,225,2014-08-02T08:10:00,4,20863635,190100
OK,231,23,1051,231,2014-08-02T08:15:00,3,20864084,190100
OK,283,18,1051,283,2014-08-02T08:20:00,4,20864533,190100
OK,349,15,1051,349,2014-08-02T08:25:00,7,20864982,190100
OK,362,14,1051,362,2014-08-02T08:30:00,4,20865431,190100
OK,377,14,1051,377,2014-08-02T08:35:00,2,20865880,190100
OK,385,13,1051,385,2014-08-02T08:40:00,3,20866329,190100
OK,347,15,1051,347,2014-08-02T08:45:00,4,20866778,190100
OK,347,15,1051,347,2014-08-02T08:50:00,2,20867227,190100
OK,361,14,1051,361,2014-08-02T08:55:00,0,20867676,190100
OK,386,13,1051,386,2014-08-02T09:00:00,3,20868125,190100
OK,446,12,1051,446,2014-08-02T09:05:00,2,20868574,190100
OK,345,15,1051,345,2014-08-02T09:10:00,2,20869023,190100
OK,326,16,1051,326,2014-08-02T09:15:00,4,20869472,190100
OK,310,17,1051,310,2014-08-02T09:20:00,2,20869921,190100
OK,347,15,1051,347,2014-08-02T09:25:00,3,20870370,190100
OK,460,11,1051,460,2014-08-02T09:30:00,2,20870819,190100
OK,314,17,1051,314,2014-08-02T09:35:00,5,20871268,190100
OK,286,18,1051,286,2014-08-02T09:40:00,4,20871717,190100
OK,345,15,1051,345,2014-08-02T09:45:00,6,20872166,190100
OK,378,14,1051,378,2014-08-02T09:50:00,4,20872615,190100
OK,320,16,1051,320,2014-08-02T09:55:00,1,20873064,190100
OK,337,15,1051,337,2014-08-02T10:00:00,2,20873513,190100
OK,410,13,1051,410,2014-08-02T10:05:00,4,20873962,190100
OK,408,13,1051,408,2014-08-02T10:10:00,3,20874411,190100
OK,384,13,1051,384,2014-08-02T10:15:00,1,20874860,190100
OK,384,13,1051,384,2014-08-02T10:20:00,1,20875309,190100
OK,379,14,1051,379,2014-08-02T10:25:00,1,20875758,190100
OK,566,9,1051,566,2014-08-02T10:30:00,4,20876207,190100
OK,582,9,1051,582,2014-08-02T10:35:00,2,20876656,190100
OK,560,9,1051,560,2014-08-02T10:40:00,4,20877105,190100
OK,544,9,1051,544,2014-08-02T10:45:00,4,20877554,190100
OK,519,10,1051,519,2014-08-02T10:50:00,2,20878003,190100
OK,615,8,1051,615,2014-08-02T10:55:00,3,20878452,190100
OK,568,9,1051,568,2014-08-02T11:00:00,5,20878901,190100
OK,595,9,1051,595,2014-08-02T11:05:00,6,20879350,190100
OK,613,8,1051,613,2014-08-02T11:10:00,4,20879799,190100
OK,591,9,1051,591,2014-08-02T11:15:00,1,20880248,190100
OK,632,8,1051,632,2014-08-02T11:20:00,9,20880697,190100
OK,642,8,1051,642,2014-08-02T11:25:00,16,20881146,190100
OK,636,8,1051,636,2014-08-02T11:30:00,11,20881595,190100
OK,632,8,1051,632,2014-08-02T11:35:00,5,20882044,190100
OK,632,8,1051,632,2014-08-02T11:40:00,3,20882493,190100
OK,590,9,1051,590,2014-08-02T11:45:00,3,20882942,190100
OK,575,9,1051,575,2014-08-02T11:50:00,2,20883391,190100
OK,575,9,1051,575,2014-08-02T11:55:00,0,20883840,190100
OK,623,8,1051,623,2014-08-02T12:00:00,4,20884289,190100
OK,623,8,1051,623,2014-08-02T12:05:00,4,20884738,190100
OK,630,8,1051,630,2014-08-02T12:10:00,1,20885187,190100
OK,630,8,1051,630,2014-08-02T12:15:00,3,20885636,190100
OK,580,9,1051,580,2014-08-02T12:20:00,4,20886085,190100
OK,507,10,1051,507,2014-08-02T12:25:00,2,20886534,190100
OK,594,9,1051,594,2014-08-02T12:30:00,2,20886983,190100
OK,513,10,1051,513,2014-08-02T12:35:00,3,20887432,190100
OK,511,10,1051,511,2014-08-02T12:40:00,5,20887881,190100
OK,507,10,1051,507,2014-08-02T12:45:00,8,20888330,190100
OK,497,10,1051,497,2014-08-02T12:50:00,4,20888779,190100
OK,514,10,1051,514,2014-08-02T12:55:00,4,20889228,190100
OK,514,10,1051,514,2014-08-02T13:00:00,5,20889677,190100
OK,535,10,1051,535,2014-08-02T13:05:00,2,20890126,190100
OK,525,10,1051,525,2014-08-02T13:10:00,0,20890575,190100
OK,651,8,1051,651,2014-08-02T13:15:00,2,20891024,190100
OK,651,8,1051,651,2014-08-02T13:20:00,5,20891473,190100
OK,526,10,1051,526,2014-08-02T13:25:00,5,20891922,190100
OK,518,10,1051,518,2014-08-02T13:30:00,3,20892371,190100
OK,437,12,1051,437,2014-08-02T13:35:00,3,20892820,190100
OK,451,11,1051,451,2014-08-02T13:40:00,3,20893269,190100
OK,425,12,1051,425,2014-08-02T13:45:00,2,20893718,190100
OK,261,20,1051,261,2014-08-02T13:50:00,3,20894167,190100
OK,362,14,1051,362,2014-08-02T13:55:00,5,20894616,190100
OK,402,13,1051,402,2014-08-02T14:00:00,3,20895065,190100
OK,402,13,1051,402,2014-08-02T14:05:00,1,20895514,190100
OK,402,13,1051,402,2014-08-02T14:10:00,0,20895963,190100
OK,459,11,1051,459,2014-08-02T14:15:00,1,20896412,190100
OK,489,10,1051,489,2014-08-02T14:20:00,3,20896861,190100
OK,448,11,1051,448,2014-08-02T14:25:00,6,20897310,190100
OK,433,12,1051,433,2014-08-02T14:30:00,3,20897759,190100
OK,336,15,1051,336,2014-08-02T14:35:00,1,20898208,190100
OK,336,15,1051,336,2014-08-02T14:40:00,1,20898657,190100
OK,336,15,1051,336,2014-08-02T14:45:00,0,20899106,190100
OK,257,20,1051,257,2014-08-02T14:50:00,2,20899555,190100
OK,230,23,1051,230,2014-08-02T14:55:00,3,20900004,190100
OK,198,27,1051,198,2014-08-02T15:00:00,1,20900453,190100
OK,244,21,1051,244,2014-08-02T15:05:00,1,20900902,190100
OK,293,18,1051,293,2014-08-02T15:10:00,2,20901351,190100
OK,305,17,1051,305,2014-08-02T15:15:00,2,20901800,190100
OK,238,22,1051,238,2014-08-02T15:20:00,4,20902249,190100
OK,229,23,1051,229,2014-08-02T15:25:00,3,20902698,190100
OK,243,22,1051,243,2014-08-02T15:30:00,2,20903147,190100
OK,225,23,1051,225,2014-08-02T15:35:00,4,20903596,190100
OK,268,20,1051,268,2014-08-02T15:40:00,3,20904045,190100
OK,268,20,1051,268,2014-08-02T15:45:00,5,20904494,190100
OK,294,18,1051,294,2014-08-02T15:50:00,7,20904943,190100
OK,302,17,1051,302,2014-08-02T15:55:00,3,20905392,190100
OK,294,18,1051,294,2014-08-02T16:00:00,0,20905841,190100
OK,419,12,1051,419,2014-08-02T16:05:00,1,20906290,190100
OK,396,13,1051,396,2014-08-02T16:10:00,4,20906739,190100
OK,381,14,1051,381,2014-08-02T16:15:00,1,20907188,190100
OK,377,14,1051,377,2014-08-02T16:20:00,1,20907637,190100
OK,359,14,1051,359,2014-08-02T16:25:00,2,20908086,190100
OK,341,15,1051,341,2014-08-02T16:30:00,3,20908535,190100
OK,379,14,1051,379,2014-08-02T16:35:00,2,20908984,190100
OK,484,11,1051,484,2014-08-02T16:40:00,0,20909433,190100
OK,166,32,1051,166,2014-08-02T16:45:00,2,20909882,190100
OK,171,31,1051,171,2014-08-02T16:50:00,3,20910331,190100
OK,214,25,1051,214,2014-08-02T16:55:00,2,20910780,190100
OK,209,25,1051,209,2014-08-02T17:00:00,1,20911229,190100
OK,251,21,1051,251,2014-08-02T17:05:00,3,20911678,190100
OK,241,22,1051,241,2014-08-02T17:10:00,4,20912127,190100
OK,207,25,1051,207,2014-08-02T17:15:00,3,20912576,190100
OK,280,19,1051,280,2014-08-02T17:20:00,3,20913025,190100
OK,234,22,1051,234,2014-08-02T17:25:00,3,20913474,190100
OK,426,12,1051,426,2014-08-02T17:30:00,2,20913923,190100
OK,422,12,1051,422,2014-08-02T17:35:00,2,20914372,190100
OK,226,23,1051,226,2014-08-02T17:40:00,1,20914821,190100
OK,226,23,1051,226,2014-08-02T17:45:00,0,20915270,190100
OK,171,31,1051,171,2014-08-02T17:50:00,2,20915719,190100
OK,171,31,1051,171,2014-08-02T17:55:00,2,20916168,190100
OK,164,32,1051,164,2014-08-02T18:00:00,0,20916617,190100
OK,164,32,1051,164,2014-08-02T18:05:00,0,20917066,190100
OK,164,32,1051,164,2014-08-02T18:10:00,0,20917515,190100
OK,231,23,1051,231,2014-08-02T18:15:00,1,20917964,190100
OK,231,23,1051,231,2014-08-02T18:20:00,1,20918413,190100
OK,225,23,1051,225,2014-08-02T18:25:00,1,20918862,190100
OK,225,23,1051,225,2014-08-02T18:30:00,1,20919311,190100
OK,225,23,1051,225,2014-08-02T18:35:00,0,20919760,190100
OK,225,23,1051,225,2014-08-02T18:40:00,0,20920209,190100
OK,235,22,1051,235,2014-08-02T18:45:00,1,20920658,190100
OK,235,22,1051,235,2014-08-02T18:50:00,1,20921107,190100
OK,184,29,1051,184,2014-08-02T18:55:00,3,20921556,190100
OK,186,28,1051,186,2014-08-02T19:00:00,2,20922005,190100
OK,186,28,1051,186,2014-08-02T19:05:00,0,20922454,190100
OK,186,28,1051,186,2014-08-02T19:10:00,0,20922903,190100
OK,186,28,1051,186,2014-08-02T19:15:00,0,20923352,190100
OK,186,28,1051,186,2014-08-02T19:20:00,0,20923801,190100
OK,186,28,1051,186,2014-08-02T19:25:00,0,20924250,190100
OK,186,28,1051,186,2014-08-02T19:30:00,0,20924699,190100
OK,186,28,1051,186,2014-08-02T19:35:00,0,20925148,190100
OK,186,28,1051,186,2014-08-02T19:40:00,0,20925597,190100
OK,285,18,1051,285,2014-08-02T19:45:00,1,20926046,190100
OK,285,18,1051,285,2014-08-02T19:50:00,1,20926495,190100
OK,285,18,1051,285,2014-08-02T19:55:00,0,20926944,190100
OK,285,18,1051,285,2014-08-02T20:00:00,0,20927393,190100
OK,285,18,1051,285,2014-08-02T20:05:00,0,20927842,190100
OK,285,18,1051,285,2014-08-02T20:10:00,0,20928291,190100
OK,229,23,1051,229,2014-08-02T20:15:00,1,20928740,190100
OK,229,23,1051,229,2014-08-02T20:20:00,0,20929189,190100
OK,229,23,1051,229,2014-08-02T20:25:00,0,20929638,190100
OK,229,23,1051,229,2014-08-02T20:30:00,0,20930087,190100
OK,229,23,1051,229,2014-08-02T20:35:00,0,20930536,190100
OK,371,14,1051,371,2014-08-02T20:40:00,1,20930985,190100
OK,376,14,1051,376,2014-08-02T20:45:00,1,20931434,190100
OK,215,24,1051,215,2014-08-02T20:50:00,2,20931883,190100
OK,214,25,1051,214,2014-08-02T20:55:00,1,20932332,190100
OK,186,28,1051,186,2014-08-02T21:00:00,2,20932781,190100
OK,153,35,1051,153,2014-08-02T21:05:00,3,20933230,190100
OK,153,35,1051,153,2014-08-02T21:10:00,1,20933679,190100
OK,153,35,1051,153,2014-08-02T21:15:00,0,20934128,190100
OK,139,38,1051,139,2014-08-02T21:20:00,1,20934577,190100
OK,139,38,1051,139,2014-08-02T21:25:00,1,20935026,190100
OK,139,38,1051,139,2014-08-02T21:30:00,0,20935475,190100
OK,139,38,1051,139,2014-08-02T21:35:00,0,20935924,190100
OK,139,38,1051,139,2014-08-02T21:40:00,0,20936373,190100
OK,177,30,1051,177,2014-08-02T21:45:00,1,20936822,190100
OK,177,30,1051,177,2014-08-02T21:50:00,1,20937271,190100
OK,177,30,1051,177,2014-08-02T21:55:00,0,20937720,190100
OK,177,30,1051,177,2014-08-02T22:00:00,0,20938169,190100
OK,177,30,1051,177,2014-08-02T22:05:00,0,20938618,190100
OK,187,28,1051,187,2014-08-02T22:10:00,1,20939067,190100
OK,187,28,1051,187,2014-08-02T22:15:00,0,20939516,190100
OK,187,28,1051,187,2014-08-02T22:20:00,0,20939965,190100
OK,187,28,1051,187,2014-08-02T22:25:00,0,20940414,190100
OK,167,32,1051,167,2014-08-02T22:30:00,2,20940863,190100
OK,171,31,1051,171,2014-08-02T22:35:00,2,20941312,190100
OK,175,30,1051,175,2014-08-02T22:40:00,0,20941761,190100
OK,175,30,1051,175,2014-08-02T22:45:00,0,20942210,190100
OK,143,37,1051,143,2014-08-02T22:50:00,1,20942659,190100
OK,143,37,1051,143,2014-08-02T22:55:00,0,20943108,190100
OK,143,37,1051,143,2014-08-02T23:00:00,0,20943557,190100
OK,143,37,1051,143,2014-08-02T23:10:00,0,20944006,190100
OK,143,37,1051,143,2014-08-02T23:15:00,0,20944455,190100
OK,143,37,1051,143,2014-08-02T23:20:00,0,20944904,190100
OK,143,37,1051,143,2014-08-02T23:25:00,0,20945353,190100
OK,143,37,1051,143,2014-08-02T23:30:00,0,20945802,190100
OK,143,37,1051,143,2014-08-02T23:35:00,0,20946251,190100
OK,143,37,1051,143,2014-08-02T23:40:00,0,20946700,190100
OK,143,37,1051,143,2014-08-02T23:45:00,0,20947149,190100
OK,143,37,1051,143,2014-08-02T23:50:00,0,20947598,190100
OK,143,37,1051,143,2014-08-02T23:55:00,0,20948047,190100
OK,143,37,1051,143,2014-08-03T00:00:00,0,20948496,190100
OK,143,37,1051,143,2014-08-03T00:05:00,0,20948945,190100
OK,143,37,1051,143,2014-08-03T00:10:00,0,20949393,190100
OK,143,37,1051,143,2014-08-03T00:15:00,0,20949842,190100
OK,143,37,1051,143,2014-08-03T00:20:00,0,20950291,190100
OK,206,26,1051,206,2014-08-03T00:25:00,2,20950740,190100
OK,206,26,1051,206,2014-08-03T00:30:00,2,20951189,190100
OK,206,26,1051,206,2014-08-03T00:35:00,0,20951638,190100
OK,206,26,1051,206,2014-08-03T00:40:00,0,20952087,190100
OK,206,26,1051,206,2014-08-03T00:45:00,0,20952536,190100
OK,206,26,1051,206,2014-08-03T00:50:00,0,20952985,190100
OK,206,26,1051,206,2014-08-03T00:55:00,0,20953434,190100
OK,206,26,1051,206,2014-08-03T01:00:00,0,20953883,190100
OK,206,26,1051,206,2014-08-03T01:05:00,0,20954332,190100
OK,206,26,1051,206,2014-08-03T01:10:00,0,20954781,190100
OK,206,26,1051,206,2014-08-03T01:15:00,0,20955230,190100
OK,206,26,1051,206,2014-08-03T01:20:00,0,20955679,190100
OK,206,26,1051,206,2014-08-03T01:25:00,0,20956128,190100
OK,206,26,1051,206,2014-08-03T01:30:00,0,20956577,190100
OK,206,26,1051,206,2014-08-03T01:35:00,0,20957026,190100
OK,206,26,1051,206,2014-08-03T01:40:00,0,20957475,190100
OK,206,26,1051,206,2014-08-03T01:45:00,0,20957924,190100
OK,206,26,1051,206,2014-08-03T01:50:00,0,20958373,190100
OK,206,26,1051,206,2014-08-03T01:55:00,0,20958822,190100
OK,206,26,1051,206,2014-08-03T02:00:00,0,20959271,190100
OK,206,26,1051,206,2014-08-03T02:05:00,0,20959720,190100
OK,206,26,1051,206,2014-08-03T02:10:00,0,20960169,190100
OK,206,26,1051,206,2014-08-03T02:15:00,0,20960618,190100
OK,206,26,1051,206,2014-08-03T02:20:00,0,20961067,190100
OK,206,26,1051,206,2014-08-03T02:25:00,0,20961516,190100
OK,206,26,1051,206,2014-08-03T02:30:00,0,20961965,190100
OK,206,26,1051,206,2014-08-03T02:35:00,0,20962414,190100
OK,206,26,1051,206,2014-08-03T02:40:00,0,20962863,190100
OK,206,26,1051,206,2014-08-03T02:45:00,0,20963312,190100